Погода в Нежадове

Россия / Псковская область     58°34′11″N   29°18′14″E
темп.,
°C
ветер,
м/с
пор.,
м/с
влажн.,
%
обл.,
%
осадки,
мм/ч
давл.,
гПа
погр.,
м
16 сентября, чт
чт1600:00+7сз1290100 0.1 102071
03:00+4с249711 0.2 102194
06:00+2ссз229510 0.0 102232
09:00+6с237579 0.0 1022225
12:00+11св125162 0.0 10221229
15:00+12св114526 0.0 10211535
18:00+10в115731 0.0 102132
21:00+5вюв227781 0.0 102120
17 сентября, пт
пт1700:00+4в2483100 0.0 102183
03:00+4всв2588100 0.0 1021120
06:00+4всв2788100 0.0 1022212
09:00+6в3776100 0.0 1022366
12:00+10в4655100 0.0 10221118
15:00+11в46487 0.0 10221506
18:00+10в47575 0.0 1022935
21:00+5всв311795 0.0 1024270
18 сентября, сб
сб1800:00+3всв210835 0.0 1025208
03:00+2всв288816 0.0 1026172
06:00+2всв278946 0.0 1026145
09:00+6всв386868 0.0 1026310
12:00+10в475252 0.0 10261250
15:00+12в564842 0.0 10251449
18:00+10в475857 0.0 1025934
21:00+5всв3117898 0.0 1025282
19 сентября, вс
вс1900:00+5всв31181100 0.0 1026323
03:00+3всв3991100 0.0 1026222
06:00+2всв3109289 0.0 1026247
09:00+5всв41071100 0.0 1026444
12:00+9всв585357 0.0 10261067
15:00+10всв5848100 0.0 10251355
18:00+9всв595865 0.0 10261209
21:00+6всв412685 0.0 1027570
20 сентября, пн
пн2000:00+4всв412776 0.0 1028450
03:00+3св41280100 0.0 1028464
06:00+3св41285100 0.0 1028468
09:00+4всв51274100 0.0 1029642
12:00+8всв695055 0.0 10291092
15:00+10всв69455 0.0 10281333
18:00+9всв510555 0.0 10281228
21:00+5св412705 0.0 1028527